Weather in Atasu

Kazakhstan     48°41′05″N   71°38′47″E
temp.,
°C
wind,
m/s
gust,
m/s
humid.,
%
clouds,
%
prec.,
mm/h
press.,
hPa
HPBL,
m
18 june, fri
fri1800:00+24e45381 0.0 101070
03:00+20e444422 0.0 100952
06:00+20se234616 0.0 100820
09:00+28s34285 0.0 1007467
12:00+32wsw551867 0.0 10053760
15:00+33w881878 0.0 10043425
18:00+30wnw10102515 0.0 10031534
21:00+25wsw483193 0.0 1002143
19 june, sat
sat1900:00+17n11168055 0.0 1005508
03:00+13n91184100 1.1 1008615
06:00+11n9117894 1.2 1009743
09:00+10n10126799 0.0 1012974
12:00+16n1012372 0.0 10121823
15:00+18n9102798 0.0 10112999
18:00+17nnw9122783 0.0 10123152
21:00+14n59395 0.0 1014346
20 june, sun
sun2000:00+10n33510 0.0 101628
03:00+8ssw11604 0.0 101610
06:00+10sw355295 0.0 1017116
09:00+15sw573599 0.0 1016762
12:00+20w7829100 0.0 10142313
15:00+18w6850100 0.0 10141845
18:00+16w71158100 0.1 10131294
21:00+15wsw6959100 0.0 1012358
21 june, mon
mon2100:00+13sw61275100 0.8 1010420
03:00+14wsw816785 1.6 1007524
06:00+14w71284100 2.3 1006444
09:00+15nw810560 0.0 10071204
12:00+16nw101047100 0.0 10081896
15:00+15nw894891 0.0 10101802
18:00+14nnw91259100 0.0 10111396
21:00+12nw81276100 0.1 10131117
22 june, tue
tue2200:00+11nnw5127694 0.1 1015495
03:00+10nw410875 0.0 1016283
06:00+9nnw41090100 0.0 1018323
09:00+14nnw566370 0.0 1019845
12:00+18nnw564037 0.0 10192018
15:00+21nw5631100 0.0 10172594
18:00+20wnw563591 0.0 10172209
21:00+18wsw2244100 0.0 101611